[[{"header":{"parameterUnit":"m.s-1","parameterCategory":1,"la1":30.2991,"la2":30.254,"lo1":-89.0895,"lo2":-89.0444,"dy":0.0017,"dx":0.0017,"nx":28,"ny":28,"refTime":"2025-04-05T09:00:00:Z","depth":0,"parameterNumber":2,"parameterNumberName":"U-component_of_WINDS"},"data":[0,0,0,0,0,0,0,0,0,0,0,0,0,0,0,0,0,0,0,0,0,0,0,0,0,0,0,0,0,0,0,0,0,0,0,0,0,0,0,0,0,0,0,0,0,0,0,0,0,0,0,0,0,0,0,0,0,0,-5.6106,-5.6107,0,-5.627,-5.6272,-5.6274,-5.6307,-5.6305,-5.6304,-5.6303,-5.6468,-5.6474,-5.6479,0,0,0,0,0,0,0,0,0,0,0,0,0,-5.5819,-5.5824,-5.6105,-5.6107,-5.6109,-5.627,-5.6272,-5.6274,-5.6307,-5.6305,-5.6304,-5.6302,-5.6466,-5.6473,-5.648,0,0,0,0,0,0,0,0,0,0,0,0,0,-5.5959,-5.5825,-5.6105,-5.6145,-5.615,-5.6269,-5.6272,-5.6275,-5.6307,-5.6305,-5.6303,-5.6302,-5.6464,-5.6472,-5.6481,-5.657,0,0,-5.6506,-5.651,0,0,0,0,0,0,0,0,-5.5951,-5.5969,-5.6137,-5.6143,-5.6149,-5.6266,-5.6232,-5.6374,-5.6308,-5.6247,-5.6303,-5.6301,-5.6402,-5.6416,-5.6451,-5.6578,-5.6585,-5.6507,-5.6512,-5.6516,-5.6518,0,0,0,0,0,0,0,-5.5941,-5.5963,-5.617,-5.614,-5.6147,-5.6155,-5.6172,-5.6259,-5.6333,-5.6253,-5.6255,-5.6275,-5.6405,-5.6442,-5.6455,-5.6587,-5.6507,-5.6514,-5.6519,-5.6523,-5.6798,-5.68,0,0,0,0,0,0,-5.5925,-5.5954,-5.6165,-5.6175,-5.6043,-5.6161,-5.6181,-5.623,-5.6333,-5.6346,-5.6276,-5.6275,-5.6429,-5.6445,-5.6461,-5.6572,-5.6516,-5.6523,-5.6528,-5.6795,-5.6798,-5.6801,0,0,0,0,0,0,-5.5918,-5.5943,-5.6158,-5.6066,-5.6094,-5.6168,-5.6223,-5.6234,-5.6272,-5.635,-5.6364,-5.63,-5.6428,-5.6449,-5.6543,-5.6578,-5.6527,-5.6535,-5.6793,-5.6796,-5.6799,-5.6795,0,0,0,0,0,0,-5.591,-5.5941,-5.5975,-5.6066,-5.6099,-5.6238,-5.6225,-5.6239,-5.6286,-5.6287,-5.6377,-5.639,-5.6428,-5.653,-5.6551,-5.6589,-5.6541,-5.679,-5.6794,-5.6798,-5.6792,-5.6798,-5.6802,0,0,0,0,0,-5.59,-5.5967,-5.5977,-5.6002,-5.6144,-5.624,-5.6259,-5.6302,-5.6289,-5.6324,-5.6375,-5.6387,-5.6572,-5.654,-5.6564,-5.6604,-5.6788,-5.6793,-5.6798,-5.679,-5.6796,-5.6802,0,0,0,0,0,0,-5.5876,-5.5979,-5.5992,-5.609,-5.6157,-5.6246,-5.6291,-5.6308,-5.6378,-5.6376,-5.6427,-5.6447,-5.6538,-5.6581,-5.6544,-5.6697,-5.6679,-5.6689,-5.6664,-5.6672,-5.6677,-5.6663,-5.6548,0,0,0,0,0,-5.5883,-5.5953,-5.6039,-5.6118,-5.6151,-5.6216,-5.6259,-5.6288,-5.6358,-5.6386,-5.6443,-5.651,-5.6584,-5.6631,-5.6702,-5.68,-5.6819,-5.684,-5.6845,-5.6849,-5.6856,-5.691,-5.692,-5.6817,-5.6817,-5.6817,0,0,-5.5896,-5.5961,-5.6002,-5.6115,-5.617,-5.6241,-5.6239,-5.6314,-5.6367,-5.6397,-5.6489,-5.6534,-5.6613,-5.6709,-5.6754,-5.6747,-5.6889,-5.6855,-5.6858,-5.6863,-5.6917,-5.6926,-5.6935,-5.6821,-5.682,-5.682,0,0,-5.5957,-5.6014,-5.6086,-5.6141,-5.6225,-5.6268,-5.6285,-5.6373,-5.6404,-5.6499,-5.6523,-5.6587,-5.6712,-5.6767,-5.6811,-5.6897,-5.691,-5.6919,-5.6944,-5.6997,-5.7005,-5.7013,-5.7042,-5.7052,-5.6927,-5.6927,-5.6927,0,-5.5962,-5.6071,-5.612,-5.6195,-5.6244,-5.6277,-5.6349,-5.6401,-5.6503,-5.6536,-5.6527,-5.6686,-5.6741,-5.6851,-5.6872,-5.6908,-5.6928,-5.6907,-5.7001,-5.7008,-5.7016,-5.7044,-5.7055,-5.6927,-5.6927,-5.6927,-5.6927,0,-5.6074,-5.6149,-5.6197,-5.6297,-5.6351,-5.6425,-5.6484,-5.6534,-5.6559,-5.6603,-5.6699,-5.6767,-5.6853,-5.6882,-5.6907,-5.6996,-5.6989,-5.699,-5.6973,-5.7025,-5.7053,-5.7064,-5.6928,-5.6928,-5.6927,-5.6927,0,0,-5.612,-5.6248,-5.6264,-5.631,-5.6407,-5.6465,-5.6541,-5.6627,-5.6668,-5.6739,-5.6803,-5.691,-5.6912,-5.6963,-5.6994,-5.7041,-5.7103,-5.7037,-5.7039,-5.7045,-5.7205,-5.7201,-5.7213,-5.7114,-5.7117,-5.7118,-5.7198,0,-5.6191,-5.6327,-5.6374,-5.6486,-5.6556,-5.659,-5.6656,-5.6722,-5.6767,-5.6833,-5.6882,-5.6956,-5.6954,-5.6985,-5.7033,-5.7085,-5.7136,-5.7081,-5.7173,-5.7175,-5.7149,-5.7228,-5.7224,-5.7295,-5.7209,-5.7211,-5.7212,0,-5.629,-5.6363,-5.6482,-5.6571,-5.6602,-5.6661,-5.6744,-5.6807,-5.6883,-5.6912,-5.697,-5.6999,-5.708,-5.7061,-5.7172,-5.7134,-5.7175,-5.7207,-5.7211,-5.7218,-5.7194,-5.7235,-5.7319,-5.7329,-5.723,-5.7228,-5.7227,0,-5.6309,-5.6438,-5.6526,-5.6565,-5.6671,-5.6711,-5.6757,-5.6832,-5.6881,-5.6954,-5.6987,-5.7068,-5.7112,-5.7174,-5.7225,-5.7206,-5.7331,-5.7316,-5.7356,-5.7355,-5.7378,-5.7375,-5.7467,-5.7409,-5.7409,-5.7409,-5.7409,0,-5.6381,-5.6452,-5.6536,-5.659,-5.6671,-5.6726,-5.6805,-5.6853,-5.692,-5.6984,-5.7019,-5.7078,-5.7142,-5.721,-5.725,-5.7336,-5.7356,-5.7381,-5.739,-5.7376,-5.7373,-5.7401,-5.7396,-5.7412,-5.7411,-5.7411,-5.741,0,-5.6414,-5.6474,-5.6572,-5.6666,-5.6691,-5.6747,-5.6827,-5.6881,-5.6928,-5.7008,-5.703,-5.7104,-5.7186,-5.7243,-5.7348,-5.7375,-5.7467,-5.7477,-5.7441,-5.7445,-5.7481,-5.7476,-5.7592,-5.761,-5.7542,-5.7543,-5.7543,0,-5.6455,-5.651,-5.6611,-5.6657,-5.6703,-5.6776,-5.6827,-5.6885,-5.6936,-5.7029,-5.7071,-5.7156,-5.7226,-5.7355,-5.7418,-5.7498,-5.7509,-5.7545,-5.7521,-5.7506,-5.7507,-5.7502,-5.7508,-5.7547,-5.7547,-5.7548,-5.7548,0,-5.6519,-5.6547,-5.6619,-5.6703,-5.6763,-5.6831,-5.6899,-5.6935,-5.7005,-5.7061,-5.7145,-5.72,-5.7309,-5.7391,-5.7479,-5.7526,-5.7548,-5.7556,-5.7569,-5.7553,-5.7529,-5.7541,-5.7448,-5.7552,-5.7551,-5.7551,-5.7551,-5.7551,-5.6556,-5.6608,-5.6687,-5.6766,-5.6825,-5.6889,-5.6944,-5.6999,-5.7071,-5.7164,-5.7194,-5.7281,-5.7358,-5.7478,-5.7527,-5.7597,-5.7594,-5.7614,-5.7618,-5.7621,-5.762,-5.7521,-5.7613,-5.7613,-5.7613,-5.7613,-5.7613,0,-5.6621,-5.6675,-5.6748,-5.6843,-5.6906,-5.6925,-5.7002,-5.7053,-5.713,-5.72,-5.727,-5.7367,-5.7449,-5.752,-5.7604,-5.7646,-5.7659,-5.7666,-5.7662,-5.7673,-5.7618,-5.7597,-5.7655,-5.7655,-5.7655,-5.7655,-5.7655,-5.7655,-5.6662,-5.675,-5.6787,-5.6904,-5.6957,-5.7044,-5.7086,-5.7146,-5.7202,-5.731,-5.7378,-5.7425,-5.7496,-5.7586,-5.7662,-5.7681,-5.7709,-5.7714,-5.7735,-5.7682,-5.7676,-5.7672,-5.7652,-5.7721,-5.7721,-5.7784,-5.7784,-5.7785]},{"header":{"parameterUnit":"m.s-1","parameterCategory":1,"la1":30.2991,"la2":30.254,"lo1":-89.0895,"lo2":-89.0444,"dy":0.0017,"dx":0.0017,"nx":28,"ny":28,"refTime":"2025-04-05T09:00:00:Z","depth":0,"parameterNumber":3,"parameterNumberName":"V-component_of_WINDS"},"data":[0,0,0,0,0,0,0,0,0,0,0,0,0,0,0,0,0,0,0,0,0,0,0,0,0,0,0,0,0,0,0,0,0,0,0,0,0,0,0,0,0,0,0,0,0,0,0,0,0,0,0,0,0,0,0,0,0,0,4.3701,4.3702,0,4.3833,4.3834,4.3836,4.3857,4.3856,4.3855,4.3854,4.3987,4.3991,4.3996,0,0,0,0,0,0,0,0,0,0,0,0,0,4.3467,4.3471,4.37,4.3702,4.3704,4.3832,4.3834,4.3836,4.3857,4.3856,4.3854,4.3853,4.3985,4.399,4.3996,0,0,0,0,0,0,0,0,0,0,0,0,0,4.358,4.3472,4.37,4.373,4.3734,4.3832,4.3834,4.3836,4.3858,4.3856,4.3854,4.3852,4.3983,4.399,4.3997,4.4074,0,0,4.4018,4.4021,0,0,0,0,0,0,0,0,4.3574,4.3589,4.3724,4.3728,4.3733,4.3827,4.3801,4.3916,4.3858,4.381,4.3854,4.3852,4.3935,4.3945,4.3974,4.408,4.4086,4.4018,4.4023,4.4026,4.4028,0,0,0,0,0,0,0,4.3566,4.3583,4.3753,4.3726,4.3731,4.3737,4.3751,4.3823,4.388,4.3814,4.3816,4.3832,4.3937,4.3967,4.3977,4.4088,4.4018,4.4024,4.4029,4.4031,4.4267,4.4269,0,0,0,0,0,0,4.3553,4.3577,4.3748,4.3757,4.3648,4.3742,4.3758,4.3798,4.388,4.3891,4.3833,4.3832,4.3956,4.3969,4.3982,4.408,4.4026,4.4032,4.4036,4.4265,4.4268,4.427,0,0,0,0,0,0,4.3548,4.3568,4.3743,4.3667,4.369,4.3748,4.3793,4.3802,4.3832,4.3894,4.3904,4.3854,4.3955,4.3972,4.4052,4.4085,4.4035,4.4041,4.4263,4.4266,4.4269,4.4275,0,0,0,0,0,0,4.3541,4.3566,4.3596,4.3668,4.3694,4.3811,4.3795,4.3805,4.3844,4.3845,4.3916,4.3926,4.3955,4.4041,4.4059,4.4093,4.4047,4.426,4.4264,4.4268,4.4272,4.4278,4.4283,0,0,0,0,0,4.3533,4.3591,4.3597,4.3618,4.3732,4.3812,4.3827,4.3861,4.3847,4.3878,4.3918,4.3924,4.4078,4.4049,4.4069,4.4106,4.4258,4.4263,4.4268,4.4269,4.4277,4.4283,0,0,0,0,0,0,4.3519,4.3601,4.3608,4.3692,4.3745,4.3816,4.3855,4.3866,4.3924,4.3922,4.396,4.3976,4.4054,4.4088,4.4054,4.4187,4.4167,4.4176,4.4162,4.4169,4.4175,4.4165,4.4053,0,0,0,0,0,4.3526,4.3585,4.3653,4.3719,4.3746,4.3796,4.3832,4.3854,4.391,4.3933,4.3978,4.4033,4.4094,4.4133,4.4193,4.4277,4.4294,4.4313,4.4318,4.4322,4.433,4.438,4.439,4.4286,4.4286,4.4286,0,0,4.354,4.3592,4.3627,4.3718,4.3762,4.3823,4.3815,4.3878,4.3924,4.3942,4.4021,4.4057,4.412,4.4203,4.4242,4.4234,4.4362,4.4328,4.4331,4.4336,4.4386,4.4395,4.4404,4.4289,4.4288,4.4288,0,0,4.3598,4.3643,4.3705,4.375,4.3817,4.3851,4.3866,4.3936,4.3961,4.4041,4.4057,4.4111,4.4215,4.4261,4.4297,4.4376,4.4385,4.4394,4.4423,4.4471,4.448,4.4487,4.4518,4.4528,4.4402,4.4402,4.4402,0,4.3608,4.37,4.3735,4.3799,4.384,4.3861,4.3925,4.3967,4.405,4.4078,4.4067,4.4201,4.4244,4.434,4.436,4.4388,4.4408,4.4386,4.4476,4.4484,4.4491,4.4521,4.4532,4.4402,4.4402,4.4402,4.4402,0,4.3709,4.3773,4.3815,4.3897,4.3942,4.4006,4.4052,4.4093,4.4111,4.4146,4.4229,4.4283,4.4355,4.4379,4.4396,4.4478,4.4472,4.4468,4.4449,4.4501,4.453,4.4541,4.4404,4.4403,4.4403,4.4403,0,0,4.3761,4.3864,4.3879,4.3918,4.3995,4.4045,4.4111,4.4183,4.4219,4.4276,4.4333,4.4422,4.4421,4.4462,4.4485,4.4527,4.459,4.4519,4.4521,4.4532,4.4686,4.469,4.4702,4.4596,4.4598,4.46,4.4682,0,4.3829,4.3947,4.3983,4.4082,4.4143,4.4165,4.4223,4.4277,4.4312,4.4369,4.4407,4.447,4.4462,4.4488,4.4531,4.4573,4.4621,4.4567,4.465,4.4653,4.4635,4.4716,4.4719,4.4794,4.4693,4.4695,4.4696,0,4.3924,4.3986,4.4092,4.4165,4.4192,4.4242,4.4313,4.4367,4.443,4.4452,4.4501,4.4521,4.4591,4.4568,4.4667,4.4629,4.4665,4.4691,4.4695,4.4705,4.4678,4.473,4.4818,4.483,4.4713,4.4712,4.4711,0,4.3954,4.4063,4.4142,4.4174,4.426,4.4296,4.4333,4.4394,4.4437,4.4498,4.4527,4.4595,4.4632,4.4685,4.4724,4.4703,4.482,4.4799,4.4842,4.4841,4.4866,4.4864,4.4963,4.4886,4.4886,4.4886,4.4886,0,4.4028,4.4092,4.4157,4.4205,4.4279,4.4319,4.4391,4.4429,4.4484,4.4541,4.4564,4.4617,4.4664,4.4723,4.4753,4.4832,4.4848,4.4869,4.4877,4.4868,4.4866,4.4893,4.4889,4.4889,4.4888,4.4888,4.4887,0,4.4073,4.4119,4.4207,4.4282,4.4303,4.4354,4.4419,4.4467,4.4504,4.4576,4.4595,4.4652,4.4724,4.4768,4.4857,4.4878,4.4966,4.497,4.4945,4.4949,4.4989,4.4986,4.511,4.513,4.5039,4.5039,4.504,0,4.4118,4.4169,4.4251,4.4291,4.433,4.4394,4.4438,4.448,4.4525,4.4603,4.4642,4.4715,4.4776,4.489,4.494,4.5009,4.5017,4.5056,4.5027,4.5018,4.502,4.5017,4.5024,4.5061,4.5061,4.5062,4.5063,0,4.4193,4.4214,4.4277,4.4349,4.4402,4.446,4.4518,4.4549,4.4602,4.4651,4.4726,4.4773,4.4867,4.494,4.5015,4.5054,4.5068,4.5071,4.5085,4.5078,4.5062,4.5073,4.496,4.5068,4.5068,4.5067,4.5067,4.5067,4.4242,4.4289,4.4355,4.4425,4.4474,4.4529,4.4579,4.4623,4.4686,4.4766,4.4787,4.4866,4.493,4.5032,4.5073,4.5135,4.5129,4.5149,4.5154,4.5159,4.5161,4.5051,4.5149,4.5148,4.5148,4.5148,4.5148,0,4.432,4.4365,4.4429,4.4511,4.4566,4.4576,4.4641,4.4687,4.4757,4.4815,4.4876,4.4963,4.5035,4.5091,4.5165,4.5205,4.5213,4.5223,4.5221,4.5231,4.5161,4.5142,4.5215,4.5215,4.5215,4.5215,4.5215,4.5215,4.4368,4.4449,4.4478,4.4585,4.4629,4.4707,4.4744,4.4795,4.4843,4.4939,4.5,4.5037,4.5096,4.5175,4.5242,4.5256,4.5283,4.5292,4.5309,4.5242,4.5235,4.5228,4.5211,4.5297,4.5298,4.5374,4.5375,4.5375]}]]